FW9598 Weather Reports


Display with metric or nautical units.
time (UTC)temp
F
wind
direction
speed
MPH
gust
MPH
rain 1hr
in
rain 24hr
in
rain mn
in
humidity
%
barometer
mb
20260506160034 59 0.0 0.0 0.00 0.00 0.00 87 1022.5
20260506155029 59 304 0.0 2.0 0.00 0.00 0.00 87 1022.6
20260506154047 58 305 1.0 2.0 0.00 0.00 0.00 88 1022.5
20260506153023 58 305 1.0 2.0 0.00 0.00 0.00 88 1022.6
20260506152019 58 328 0.0 1.0 0.00 0.00 0.00 88 1022.5
20260506151036 57 329 1.0 2.0 0.00 0.00 0.00 89 1022.4
20260506150033 57 339 2.0 4.0 0.00 0.00 0.00 89 1022.5
20260506145029 57 295 0.0 2.0 0.00 0.00 0.00 89 1022.5
20260506144147 56 319 0.0 3.0 0.00 0.00 0.00 89 1022.4
20260506143023 56 0.0 0.0 0.00 0.00 0.00 89 1022.4
20260506142019 56 0.0 0.0 0.00 0.00 0.00 89 1022.2
20260506141016 56 0.0 0.0 0.00 0.00 0.00 89 1022.1
20260506140033 56 0.0 0.0 0.00 0.00 0.00 89 1022.0
20260506135030 56 0.0 0.0 0.00 0.00 0.00 89 1022.1
20260506134026 56 302 0.0 1.0 0.00 0.00 0.00 89 1021.9
20260506133023 56 0.0 0.0 0.00 0.00 0.00 89 1021.9
20260506132019 56 0.0 0.0 0.00 0.00 0.00 89 1021.8
20260506131016 56 0.0 0.0 0.00 0.00 0.00 89 1021.7
20260506130033 56 0.0 0.0 0.00 0.00 0.00 89 1021.7
20260506125030 56 0.0 0.0 0.00 0.00 0.00 88 1021.7
20260506124047 56 0.0 0.0 0.00 0.00 0.00 88 1021.6
20260506123044 56 0.0 0.0 0.00 0.00 0.00 88 1021.6
20260506122020 56 0.0 0.0 0.00 0.00 0.00 88 1021.6
20260506121017 56 0.0 0.0 0.00 0.00 0.00 88 1021.5
20260506120033 56 0.0 0.0 0.00 0.00 0.00 88 1021.6
20260506115031 56 288 1.0 1.0 0.00 0.00 0.00 88 1021.4
20260506114027 56 290 0.0 2.0 0.00 0.00 0.00 88 1021.3
20260506113044 56 341 0.0 1.0 0.00 0.00 0.00 88 1021.3
20260506112020 56 343 0.0 2.0 0.00 0.00 0.00 88 1021.2
20260506111017 56 0.0 0.0 0.00 0.00 0.00 88 1021.2
20260506110054 56 0.0 0.0 0.00 0.00 0.00 88 1021.1
20260506105031 56 346 0.0 2.0 0.00 0.00 0.00 88 1021.1
20260506104028 56 0.0 0.0 0.00 0.00 0.00 87 1020.9
20260506103025 56 0.0 0.0 0.00 0.00 0.00 87 1021.0
20260506102122 56 0.0 0.0 0.00 0.00 0.00 87 1020.9
20260506101018 56 349 0.0 1.0 0.00 0.00 0.00 87 1020.9
20260506100035 56 349 0.0 1.0 0.00 0.00 0.00 87 1020.9
20260506095052 56 0.0 0.0 0.00 0.00 0.00 87 1020.9
20260506094029 56 0.0 0.0 0.00 0.00 0.00 87 1020.9
20260506093026 56 0.0 0.0 0.00 0.00 0.00 87 1021.0
20260506092023 56 0.0 0.0 0.00 0.00 0.00 87 1020.9
20260506091019 56 349 0.0 2.0 0.00 0.00 0.00 87 1021.0
20260506090016 56 339 0.0 4.0 0.00 0.00 0.00 86 1021.0
20260506085033 56 352 1.0 2.0 0.00 0.00 0.00 86 1021.0
20260506084029 56 329 1.0 4.0 0.00 0.00 0.00 86 1021.0
20260506083027 56 334 1.0 3.0 0.00 0.00 0.00 86 1020.9
20260506082023 56 318 1.0 2.0 0.00 0.00 0.00 86 1020.9
20260506081020 56 327 1.0 2.0 0.00 0.00 0.00 86 1020.9
20260506073027 57 315 1.0 4.0 0.00 0.00 0.00 85 1020.6
20260506072024 57 336 0.0 1.0 0.00 0.00 0.00 84 1020.4
20260506071020 57 342 1.0 4.0 0.00 0.00 0.00 84 1020.4
20260506062025 57 339 1.0 4.0 0.00 0.00 0.00 83 1019.9
20260506061021 57 342 1.0 2.0 0.00 0.00 0.00 83 1019.9
20260506051022 57 253 0.0 1.0 0.00 0.00 0.00 83 1019.7
20260506045035 58 253 0.0 1.0 0.00 0.00 0.00 82 1019.5
20260506044031 58 0.0 0.0 0.00 0.00 0.00 82 1019.3
20260506042025 58 0.0 0.0 0.00 0.00 0.00 82 1019.1
20260506041022 58 0.0 0.0 0.00 0.00 0.00 82 1019.1
20260506040018 58 0.0 0.0 0.00 0.00 0.00 81 1018.9
20260506035035 58 243 0.0 2.0 0.00 0.00 0.00 82 1018.9
20260506034052 58 256 0.0 2.0 0.00 0.00 0.00 81 1018.5
20260506033029 58 0.0 0.0 0.00 0.00 0.00 81 1018.5
20260506032025 58 208 0.0 2.0 0.00 0.00 0.00 80 1018.3
20260506031022 58 185 1.0 4.0 0.00 0.00 0.00 80 1018.1
20260506030019 58 253 0.0 2.0 0.00 0.00 0.00 80 1018.0
20260506025036 58 244 1.0 3.0 0.00 0.00 0.00 80 1018.0
20260506024032 58 290 1.0 3.0 0.00 0.00 0.00 80 1018.0
20260506023029 59 256 2.0 8.0 0.00 0.00 0.00 80 1017.8
20260506022046 59 253 1.0 4.0 0.00 0.00 0.00 79 1017.7
20260506021023 59 236 2.0 7.0 0.00 0.00 0.00 79 1017.6
20260506020020 59 239 3.0 7.0 0.00 0.00 0.00 79 1017.5
20260506015017 60 211 3.0 7.0 0.00 0.00 0.00 78 1017.4
20260506014033 60 256 2.0 6.0 0.00 0.00 0.00 78 1017.3
20260506013030 61 249 2.0 9.0 0.00 0.00 0.00 78 1017.2
20260506012026 61 241 3.0 10.0 0.00 0.00 0.00 78 1017.1
20260506011023 61 223 2.0 9.0 0.00 0.00 0.00 78 1017.1
20260506010040 61 255 2.0 9.0 0.00 0.00 0.00 78 1017.0
20260506005017 62 218 2.0 8.0 0.00 0.00 0.00 79 1016.9
20260506004034 62 215 2.0 6.0 0.00 0.00 0.00 79 1016.9
20260506003031 62 235 2.0 4.0 0.00 0.00 0.00 79 1016.9
20260506002027 62 236 1.0 4.0 0.00 0.00 0.00 79 1016.9
20260506001024 62 249 2.0 7.0 0.00 0.00 0.00 78 1016.7
20260506000021 62 252 2.0 7.0 0.00 0.00 0.00 78 1016.8
20260505235018 62 191 2.0 8.0 0.00 0.00 0.00 78 1016.7
20260505234035 63 224 1.0 4.0 0.00 0.00 0.00 77 1016.7
20260505233032 63 224 3.0 9.0 0.00 0.00 0.00 77 1016.7
20260505232028 63 213 2.0 7.0 0.00 0.00 0.00 76 1016.6
20260505231025 64 209 3.0 10.0 0.00 0.00 0.00 76 1016.6
20260505230021 65 212 3.0 8.0 0.00 0.00 0.00 76 1016.6
20260505225018 65 196 2.0 7.0 0.00 0.00 0.00 75 1016.6
20260505224035 66 222 3.0 7.0 0.00 0.00 0.00 75 1016.7
20260505223032 66 233 3.0 7.0 0.00 0.00 0.00 75 1016.7
20260505222028 66 282 1.0 2.0 0.00 0.00 0.00 75 1016.8
20260505221025 66 337 2.0 6.0 0.00 0.00 0.00 75 1016.9
20260505220022 66 360 1.0 4.0 0.00 0.00 0.00 75 1016.8
20260505215019 65 290 1.0 3.0 0.00 0.00 0.00 75 1016.9
20260505214016 65 280 2.0 4.0 0.00 0.00 0.00 75 1017.1
20260505213033 65 346 1.0 4.0 0.00 0.00 0.00 76 1017.0
20260505212049 65 345 1.0 8.0 0.00 0.00 0.00 77 1017.1
20260505211026 65 313 1.0 3.0 0.00 0.00 0.00 77 1017.2
20260505210022 65 344 0.0 1.0 0.00 0.00 0.00 76 1017.2
20260505205020 64 316 2.0 6.0 0.00 0.00 0.00 79 1017.3
20260505204017 63 300 1.0 4.0 0.00 0.00 0.00 80 1017.3
20260505203113 63 307 1.0 2.0 0.00 0.00 0.00 80 1017.4
20260505202050 63 316 1.0 3.0 0.00 0.00 0.00 80 1017.5
20260505201026 62 294 1.0 4.0 0.00 0.00 0.00 81 1017.4
20260505200023 62 275 1.0 2.0 0.00 0.00 0.00 82 1017.6
20260505195020 62 337 1.0 6.0 0.00 0.00 0.00 82 1017.5
20260505194017 62 347 1.0 3.0 0.00 0.00 0.00 83 1017.6
20260505193034 62 347 1.0 2.0 0.00 0.00 0.00 82 1017.7
20260505192030 62 308 1.0 4.0 0.00 0.00 0.00 84 1017.6
20260505191027 62 339 2.0 6.0 0.00 0.00 0.00 85 1017.5
20260505190024 61 57 2.0 3.0 0.00 0.00 0.00 87 1017.5
20260505185021 61 357 0.0 2.0 0.00 0.00 0.00 88 1017.5
20260505184017 60 350 2.0 6.0 0.00 0.00 0.00 87 1017.5
20260505183034 60 332 1.0 3.0 0.00 0.00 0.00 86 1017.6
20260505182031 60 316 2.0 4.0 0.00 0.00 0.00 89 1017.7
20260505181028 59 335 3.0 8.0 0.00 0.00 0.00 90 1017.6
20260505180024 59 334 3.0 6.0 0.00 0.00 0.00 91 1017.4
20260505175042 58 324 2.0 7.0 0.00 0.00 0.00 92 1017.5
20260505174018 58 342 1.0 4.0 0.00 0.00 0.00 93 1017.5
20260505173035 58 323 2.0 8.0 0.00 0.00 0.00 94 1017.4
20260505172032 57 306 1.0 3.0 0.00 0.00 0.00 95 1017.3
20260505171029 57 264 0.0 3.0 0.00 0.00 0.00 95 1017.3
20260505170046 56 278 1.0 3.0 0.00 0.00 0.00 96 1017.4
20260505165022 55 0.0 0.0 0.00 0.00 0.00 95 1017.5
20260505164019 55 265 0.0 2.0 0.00 0.00 0.00 95 1017.6
20260505163016 55 0.0 0.0 0.00 0.00 0.00 95 1017.4
20260505162033 55 0.0 0.0 0.00 0.00 0.00 95 1017.4
20260505161029 55 277 0.0 1.0 0.00 0.00 0.00 95 1017.2